Location: Marcé
(47.5801°N, 0.3280°W)
Time: 05:15:56
(UTC+01:00)

Envisat - Pass Details

Date: 25 October 2021
Orbit: 764 x 766 km, 98.2° (Epoch: 04 December)

Event Time Altitude Azimuth Distance (km) Brightness Sun altitude
Rises 07:19:29 0° 13° (NNE) 3,245 6.4 -13.3°
Reaches altitude 10° 07:21:48 10° 13° (NNE) 2,314 5.6 -12.9°
Maximum altitude 07:26:54 87° 286° (WNW) 773 3.0 -12.1°
Drops below altitude 10° 07:31:59 10° 197° (SSW) 2,295 5.4 -11.2°
Sets 07:34:16 0° 197° (SSW) 3,217 6.1 -10.8°
